• In Belgium
  • List of Countries
  • For 7 days
  • Water Temperature
  • Satellite Maps
  • Weather Map
  • Weather Widgets
  • user-avatar
    Login

    Hourly Weather Al Jazirah al Hamra

    Today, 19 June, Tuesday

    Time Temperature Precipitation Wind Pressure Humidity
    00:00 +36°C° 0 mm 1 mps 748 mmHg 45%
    01:00 +36°C° 0 mm 1 mps 748 mmHg 44%
    02:00 +35°C° 0 mm 1 mps 748 mmHg 45%
    03:00 +35°C° 0 mm 1 mps 748 mmHg 46%
    04:00 +35°C° 0 mm 1 mps 748 mmHg 47%
    05:00 +35°C° 0 mm 1 mps 748 mmHg 44%
    06:00 +36°C° 0 mm 1 mps 749 mmHg 41%
    07:00 +37°C° 0 mm 1 mps 749 mmHg 39%
    08:00 +39°C° 0 mm 2 mps 749 mmHg 34%
    09:00 +41°C° 0 mm 2 mps 749 mmHg 30%
    10:00 +42°C° 0 mm 2 mps 750 mmHg 25%
    11:00 +43°C° 0 mm 2 mps 749 mmHg 24%
    12:00 +44°C° 0 mm 3 mps 749 mmHg 24%
    13:00 +45°C° 0 mm 4 mps 749 mmHg 23%
    14:00 +45°C° 0 mm 4 mps 749 mmHg 25%
    15:00 +44°C° 0 mm 4 mps 749 mmHg 27%
    16:00 +44°C° 0 mm 4 mps 749 mmHg 29%
    17:00 +43°C° 0 mm 3 mps 749 mmHg 30%
    18:00 +42°C° 0 mm 3 mps 748 mmHg 32%
    19:00 +40°C° 0 mm 2 mps 748 mmHg 34%
    20:00 +40°C° 0 mm 2 mps 749 mmHg 36%
    21:00 +39°C° 0 mm 1 mps 749 mmHg 38%
    22:00 +37°C° 0 mm 1 mps 749 mmHg 39%
    23:00 +37°C° 0 mm 1 mps 749 mmHg 39%

    Tomorrow, 20 June, Wednesday

    Time Temperature Precipitation Wind Pressure Humidity
    00:00 +36°C° 0 mm 1 mps 749 mmHg 39%
    01:00 +36°C° 0 mm 1 mps 749 mmHg 39%
    02:00 +35°C° 0 mm 1 mps 749 mmHg 40%
    03:00 +35°C° 0 mm 1 mps 748 mmHg 42%
    04:00 +34°C° 0 mm 1 mps 748 mmHg 43%
    05:00 +35°C° 0 mm 1 mps 749 mmHg 41%
    06:00 +36°C° 0 mm 1 mps 749 mmHg 38%
    07:00 +38°C° 0 mm 2 mps 750 mmHg 35%
    08:00 +39°C° 0 mm 2 mps 750 mmHg 32%
    09:00 +41°C° 0 mm 2 mps 750 mmHg 28%
    10:00 +43°C° 0 mm 3 mps 750 mmHg 25%
    11:00 +44°C° 0 mm 3 mps 750 mmHg 25%
    12:00 +45°C° 0 mm 3 mps 750 mmHg 24%
    13:00 +46°C° 0 mm 3 mps 750 mmHg 23%
    14:00 +46°C° 0 mm 3 mps 749 mmHg 26%
    15:00 +45°C° 0 mm 4 mps 749 mmHg 28%
    16:00 +45°C° 0 mm 4 mps 749 mmHg 30%
    17:00 +44°C° 0 mm 3 mps 749 mmHg 33%
    18:00 +43°C° 0 mm 3 mps 749 mmHg 35%
    19:00 +41°C° 0 mm 2 mps 749 mmHg 38%
    20:00 +40°C° 0 mm 2 mps 749 mmHg 39%
    21:00 +40°C° 0 mm 1 mps 749 mmHg 40%
    22:00 +39°C° 0 mm 1 mps 749 mmHg 42%
    23:00 +39°C° 0 mm 1 mps 749 mmHg 41%

    Day after tomorrow, 21 June, Thursday

    Time Temperature Precipitation Wind Pressure Humidity
    00:00 +37°C° 0 mm 1 mps 749 mmHg 40%
    01:00 +37°C° 0 mm 1 mps 749 mmHg 39%
    02:00 +37°C° 0 mm 1 mps 749 mmHg 40%
    03:00 +36°C° 0 mm 1 mps 749 mmHg 41%
    04:00 +37°C° 0 mm 2 mps 749 mmHg 42%
    05:00 +37°C° 0 mm 2 mps 749 mmHg 41%
    06:00 +38°C° 0 mm 2 mps 749 mmHg 41%
    07:00 +38°C° 0 mm 2 mps 750 mmHg 41%
    08:00 +39°C° 0 mm 3 mps 750 mmHg 38%
    09:00 +42°C° 0 mm 3 mps 750 mmHg 34%
    10:00 +43°C° 0 mm 4 mps 750 mmHg 31%
    11:00 +44°C° 0 mm 4 mps 750 mmHg 29%
    12:00 +45°C° 0 mm 4 mps 750 mmHg 27%
    13:00 +47°C° 0 mm 5 mps 750 mmHg 25%
    14:00 +47°C° 0 mm 5 mps 749 mmHg 26%
    15:00 +47°C° 0 mm 5 mps 748 mmHg 26%
    16:00 +47°C° 0 mm 5 mps 748 mmHg 26%
    17:00 +46°C° 0 mm 5 mps 748 mmHg 28%
    18:00 +43°C° 0 mm 4 mps 748 mmHg 30%
    19:00 +42°C° 0 mm 4 mps 748 mmHg 32%
    20:00 +40°C° 0 mm 3 mps 748 mmHg 35%
    21:00 +39°C° 0 mm 3 mps 749 mmHg 37%
    22:00 +39°C° 0 mm 3 mps 749 mmHg 40%
    23:00 +38°C° 0 mm 3 mps 748 mmHg 42%

    22 June, Friday

    Time Temperature Precipitation Wind Pressure Humidity
    00:00 +37°C° 0 mm 3 mps 748 mmHg 45%
    01:00 +37°C° 0 mm 3 mps 748 mmHg 47%
    02:00 +36°C° 0 mm 3 mps 748 mmHg 47%
    03:00 +36°C° 0 mm 3 mps 748 mmHg 48%
    04:00 +36°C° 0 mm 3 mps 748 mmHg 48%
    05:00 +36°C° 0 mm 3 mps 748 mmHg 46%
    06:00 +37°C° 0 mm 3 mps 749 mmHg 45%
    07:00 +37°C° 0 mm 3 mps 749 mmHg 43%
    08:00 +39°C° 0 mm 3 mps 749 mmHg 39%
    09:00 +40°C° 0 mm 3 mps 749 mmHg 35%
    10:00 +43°C° 0 mm 4 mps 749 mmHg 32%
    11:00 +44°C° 0 mm 4 mps 749 mmHg 30%
    12:00 +45°C° 0 mm 4 mps 749 mmHg 28%
    13:00 +47°C° 0 mm 5 mps 748 mmHg 26%
    14:00 +47°C° 0 mm 5 mps 748 mmHg 28%
    15:00 +46°C° 0 mm 5 mps 747 mmHg 30%
    16:00 +46°C° 0 mm 5 mps 747 mmHg 32%
    17:00 +43°C° 0 mm 4 mps 747 mmHg 36%
    18:00 +42°C° 0 mm 4 mps 747 mmHg 39%
    19:00 +40°C° 0 mm 3 mps 747 mmHg 43%
    20:00 +39°C° 0 mm 3 mps 747 mmHg 46%
    21:00 +38°C° 0 mm 3 mps 748 mmHg 49%
    22:00 +37°C° 0 mm 3 mps 748 mmHg 52%
    23:00 +37°C° 0 mm 4 mps 748 mmHg 54%

    23 June, Saturday

    Time Temperature Precipitation Wind Pressure Humidity
    00:00 +36°C° 0 mm 4 mps 747 mmHg 56%
    01:00 +36°C° 0 mm 4 mps 747 mmHg 57%
    02:00 +35°C° 0 mm 4 mps 747 mmHg 60%
    03:00 +35°C° 0 mm 4 mps 747 mmHg 62%
    04:00 +35°C° 0 mm 4 mps 747 mmHg 64%
    05:00 +35°C° 0 mm 4 mps 747 mmHg 63%
    06:00 +35°C° 0 mm 4 mps 747 mmHg 61%
    07:00 +35°C° 0 mm 4 mps 748 mmHg 60%
    08:00 +37°C° 0 mm 4 mps 748 mmHg 52%
    09:00 +40°C° 0 mm 4 mps 748 mmHg 44%
    10:00 +42°C° 0 mm 3 mps 749 mmHg 36%
    11:00 +43°C° 0 mm 4 mps 748 mmHg 35%
    12:00 +44°C° 0 mm 4 mps 748 mmHg 33%
    13:00 +45°C° 0 mm 4 mps 747 mmHg 31%
    14:00 +45°C° 0 mm 4 mps 747 mmHg 33%
    15:00 +45°C° 0 mm 4 mps 747 mmHg 35%
    16:00 +44°C° 0 mm 4 mps 746 mmHg 36%
    17:00 +43°C° 0 mm 4 mps 746 mmHg 39%
    18:00 +42°C° 0 mm 4 mps 746 mmHg 42%
    19:00 +40°C° 0 mm 3 mps 746 mmHg 45%
    20:00 +39°C° 0 mm 3 mps 747 mmHg 51%
    21:00 +38°C° 0 mm 3 mps 747 mmHg 56%
    22:00 +37°C° 0 mm 3 mps 747 mmHg 61%
    23:00 +37°C° 0 mm 3 mps 747 mmHg 64%

    24 June, Sunday

    Time Temperature Precipitation Wind Pressure Humidity
    00:00 +36°C° 0 mm 3 mps 747 mmHg 67%
    01:00 +36°C° 0 mm 3 mps 747 mmHg 70%
    02:00 +35°C° 0 mm 3 mps 747 mmHg 71%
    03:00 +35°C° 0 mm 3 mps 747 mmHg 72%
    04:00 +35°C° 0 mm 3 mps 747 mmHg 73%
    05:00 +35°C° 0 mm 3 mps 747 mmHg 69%
    06:00 +35°C° 0 mm 3 mps 747 mmHg 66%
    07:00 +35°C° 0 mm 3 mps 748 mmHg 63%
    08:00 +37°C° 0 mm 3 mps 748 mmHg 55%
    09:00 +39°C° 0 mm 3 mps 748 mmHg 48%
    10:00 +40°C° 0 mm 3 mps 748 mmHg 40%
    11:00 +42°C° 0 mm 3 mps 748 mmHg 38%
    12:00 +43°C° 0 mm 3 mps 748 mmHg 36%
    13:00 +44°C° 0 mm 4 mps 747 mmHg 34%
    14:00 +44°C° 0 mm 4 mps 747 mmHg 35%
    15:00 +44°C° 0 mm 4 mps 746 mmHg 37%
    16:00 +44°C° 0 mm 4 mps 746 mmHg 38%
    17:00 +43°C° 0 mm 4 mps 746 mmHg 42%
    18:00 +42°C° 0 mm 4 mps 746 mmHg 45%
    19:00 +40°C° 0 mm 3 mps 746 mmHg 48%
    20:00 +39°C° 0 mm 3 mps 747 mmHg 51%
    21:00 +38°C° 0 mm 3 mps 747 mmHg 54%
    22:00 +37°C° 0 mm 3 mps 747 mmHg 57%
    23:00 +37°C° 0 mm 3 mps 747 mmHg 59%
    Show more